Flag for Switzerland Weather past 2 weeks in Geneva, Geneva, Switzerland

Now
35 °F

Passing clouds.


Feels Like: 32 °F
Forecast: 29 / 50 °F
Wind: 3 mph from Southwest

Location: Geneve-Cointrin

Current Time: Dec 22, 2014 at 11:38:13 AM

Latest Report: Dec 22, 2014 at 10:00 AM


Visibility: 31 mi

Pressure: 30.55 "Hg

Humidity: 85%

Dew point: 31 °F

Location of GenevaLocation

Historic Weather in Geneva — Graph

°F

Geneva temperature yesterday

Maximum temperature yesterday: 46 °F (at 2:00 PM)
Minimum temperature yesterday: 30 °F (at 7:00 AM)
Average temperature yesterday: 37 °F

Past Weeks' High & Low Weather Summary

 TemperatureHumidityPressure
High56 °F (Dec 19, 2:00 PM)97% (Dec 16, 6:00 AM)30.63 "Hg (Dec 16, 6:00 AM)
Low28 °F (Dec 22, 6:00 AM)46% (Dec 13, 1:00 PM)29.92 "Hg (Dec 13, 4:00 AM)
Average42 °F79%30.22 "Hg
* Reported Dec 7 10:00 AM — Dec 22 10:00 AM, Geneva, Weather by CustomWeather, © 2014

Note: Actual official high and low records may vary slightly from our data, if they occured in-between our weather recording intervals... More about our weather records

Advertising

Geneva weather history for previous 24 hours

 ConditionsComfort  
Time TempWeatherWind HumidityBarometerVisibility
10:00 AM
Dec 22
35 °FPassing clouds.3 mph85%30.55 "Hg31 mi
9:00 AM29 °FChilly.3 mph91%30.57 "HgN/A
8:00 AM29 °FChilly.2 mph91%30.57 "HgN/A
7:00 AM28 °FClear.2 mph91%30.57 "Hg25 mi
6:00 AM28 °FChilly.2 mph91%30.57 "HgN/A
5:00 AM29 °FChilly.2 mph92%30.58 "HgN/A
3:00 AM29 °FChilly.1 mph94%30.60 "HgN/A
2:00 AM28 °FChilly.3 mph93%30.60 "HgN/A
1:00 AM29 °FClear.3 mph94%30.61 "Hg31 mi
12:00 AM31 °FChilly.1 mph93%30.62 "HgN/A
11:00 PM
Dec 21
32 °FChilly.1 mph89%30.62 "HgN/A
9:00 PM33 °FChilly.3 mph88%30.62 "HgN/A
8:00 PM35 °FChilly.1 mph84%30.63 "HgN/A
7:00 PM36 °FPassing clouds.1 mph84%30.61 "Hg37 mi
6:00 PM39 °FChilly.1 mph73%30.59 "HgN/A
5:00 PM41 °FQuite cool.1 mph70%30.58 "HgN/A
4:00 PM45 °FScattered clouds.1 mph55%30.57 "Hg37 mi
3:00 PM46 °FCool.3 mph56%30.57 "HgN/A
2:00 PM46 °FCool.3 mph58%30.58 "HgN/A
1:00 PM44 °FScattered clouds.3 mph62%30.58 "Hg37 mi
12:00 PM44 °FQuite cool.2 mph66%30.59 "HgN/A
11:00 AM41 °FQuite cool.2 mph73%30.60 "HgN/A
Weather by CustomWeather, © 2014

See weather overviewHow to use our weather pages